User: anonymous   Login
Location: Napier
(39.4830°S, 176.9170°E)
Time: 17:38:16
(UTC+13:00)
Language:

ERS-1 Rocket - Orbit

View from above orbital plane
View from above orbital plane
View from above satellite
View from above satellite

Ground track
Ground track

The orbit data is extracted from the following two-line orbital elements,

1 21610U 91050F   19295.17965795 -.00000005  00000-0  12117-4 0  9992
2 21610  98.4963   1.4209 0002146 247.4717 165.3646 14.40884220483528
Epoch (UTC): 22 October 2019 04:18:42
Eccentricity: 0.0002146
inclination: 98.4963°
perigee height: 754 km
apogee height: 757 km
right ascension of ascending node: 1.4209°
argument of perigee: 247.4717°
revolutions per day: 14.40884220
mean anomaly at epoch: 165.3646°
orbit number at epoch: 48352

The dashed part of the orbit path shows where the satellite is in the earth's shadow,  

DLR